KD8BMB Weather Reports


time (UTC)temp
C
wind
direction
speed
KPH
gust
KPH
rain 1hr
cm
rain 24hr
cm
rain mn
cm
humidity
%
barometer
mb
20260510225027 13 288 4.8 8.0 0.00 0.00 0.00 41 1018.7
20260510224523 13 233 4.8 8.0 0.00 0.00 0.00 42 1018.6
20260510224020 13 263 1.6 8.0 0.00 0.00 0.00 42 1018.6
20260510223518 13 302 4.8 4.8 0.00 0.00 0.00 41 1018.4
20260510223015 13 341 0.0 1.6 0.00 0.00 0.00 42 1018.3
20260510222512 13 268 0.0 1.6 0.00 0.00 0.00 41 1018.3
20260510222008 13 357 0.0 1.6 0.00 0.00 0.00 42 1018.6
20260510221504 12 289 4.8 4.8 0.00 0.00 0.00 41 1018.5
20260510221000 12 287 11.3 14.5 0.00 0.00 0.00 42 1018.3
20260510220456 13 37 4.8 8.0 0.00 0.00 0.00 42 1018.4
20260510215953 13 294 3.2 4.8 0.00 0.00 0.00 40 1018.3
20260510215450 13 346 6.4 8.0 0.00 0.00 0.00 39 1018.1
20260510214948 13 320 6.4 8.0 0.00 0.00 0.00 40 1018.3
20260510214444 13 311 8.0 11.3 0.00 0.00 0.00 39 1018.0
20260510213941 13 259 8.0 9.7 0.00 0.00 0.00 39 1017.9
20260510213438 13 312 6.4 9.7 0.00 0.00 0.00 38 1017.9
20260510212934 13 316 11.3 12.9 0.00 0.00 0.00 38 1017.9
20260510212432 13 256 3.2 4.8 0.00 0.00 0.00 39 1017.7
20260510211928 14 305 6.4 9.7 0.00 0.00 0.00 38 1017.8
20260510211426 14 280 4.8 8.0 0.00 0.00 0.00 37 1017.5
20260510210925 14 238 8.0 11.3 0.00 0.00 0.00 37 1017.6
20260510210421 14 217 8.0 11.3 0.00 0.00 0.00 36 1017.7
20260510205920 14 309 6.4 11.3 0.00 0.00 0.00 37 1017.5
20260510205415 14 227 0.0 0.0 0.00 0.00 0.00 37 1017.7
20260510204912 14 302 3.2 3.2 0.00 0.00 0.00 37 1017.5
20260510204408 13 299 1.6 3.2 0.00 0.00 0.00 37 1017.7
20260510203905 13 261 4.8 8.0 0.00 0.00 0.00 36 1017.6
20260510203403 13 221 4.8 8.0 0.00 0.00 0.00 38 1017.7
20260510202902 13 285 4.8 4.8 0.00 0.00 0.00 36 1017.6
20260510202359 14 316 0.0 0.0 0.00 0.00 0.00 38 1017.9
20260510201855 14 335 1.6 3.2 0.00 0.00 0.00 37 1017.6
20260510201353 14 29 0.0 1.6 0.00 0.00 0.00 37 1017.6
20260510200849 13 294 6.4 9.7 0.00 0.00 0.00 36 1017.8
20260510200348 13 296 3.2 4.8 0.00 0.00 0.00 37 1017.9
20260510195843 13 296 4.8 8.0 0.00 0.00 0.00 36 1017.7
20260510195340 15 291 9.7 12.9 0.00 0.00 0.00 36 1017.7
20260510194834 14 275 1.6 3.2 0.00 0.00 0.00 36 1017.8
20260510194332 15 262 0.0 3.2 0.00 0.00 0.00 35 1018.0
20260510193827 14 282 6.4 9.7 0.00 0.00 0.00 37 1018.0
20260510193322 14 261 3.2 4.8 0.00 0.00 0.00 37 1018.1
20260510192818 14 258 1.6 1.6 0.00 0.00 0.00 37 1018.2
20260510192313 14 205 1.6 1.6 0.00 0.00 0.00 35 1018.3
20260510191810 15 210 8.0 9.7 0.00 0.00 0.00 35 1018.0
20260510191306 15 297 1.6 3.2 0.00 0.00 0.00 37 1018.0
20260510190804 13 327 6.4 8.0 0.00 0.00 0.00 36 1018.1
20260510190301 13 297 0.0 0.0 0.00 0.00 0.00 35 1018.1
20260510185757 12 286 3.2 4.8 0.00 0.00 0.00 38 1018.3
20260510185255 13 242 4.8 9.7 0.00 0.00 0.00 37 1018.1
20260510184752 13 307 17.7 20.9 0.00 0.00 0.00 36 1018.0
20260510184248 14 322 3.2 3.2 0.00 0.00 0.00 36 1017.8
20260510183743 13 269 4.8 9.7 0.00 0.00 0.00 37 1017.9
20260510183238 15 184 9.7 14.5 0.00 0.00 0.00 36 1018.0
20260510182735 14 293 8.0 9.7 0.00 0.00 0.00 37 1017.9
20260510182231 13 232 6.4 8.0 0.00 0.00 0.00 35 1018.0
20260510181728 13 277 1.6 4.8 0.00 0.00 0.00 37 1018.0
20260510181225 14 232 8.0 11.3 0.00 0.00 0.00 36 1017.7
20260510180721 14 281 8.0 9.7 0.00 0.00 0.00 36 1017.7
20260510180219 13 298 3.2 4.8 0.00 0.00 0.00 36 1017.8
20260510175714 14 339 11.3 14.5 0.00 0.00 0.00 36 1017.9
20260510175210 14 14 1.6 3.2 0.00 0.00 0.00 36 1017.6
20260510174708 15 325 3.2 9.7 0.00 0.00 0.00 36 1017.7
20260510174205 14 306 1.6 4.8 0.00 0.00 0.00 34 1017.7
20260510173701 13 315 6.4 14.5 0.00 0.00 0.00 39 1017.7
20260510173157 13 260 1.6 1.6 0.00 0.00 0.00 37 1017.8
20260510172652 13 326 8.0 9.7 0.00 0.00 0.00 36 1017.8
20260510172149 13 274 3.2 9.7 0.00 0.00 0.00 37 1017.8
20260510171646 13 244 16.1 22.5 0.00 0.00 0.00 36 1018.1
20260510171143 14 347 6.4 11.3 0.00 0.00 0.00 35 1018.0
20260510170639 13 73 1.6 4.8 0.00 0.00 0.00 38 1018.1
20260510170136 13 230 9.7 11.3 0.00 0.00 0.00 39 1018.3
20260510165632 13 244 0.0 1.6 0.00 0.00 0.00 39 1018.1
20260510165127 13 59 1.6 1.6 0.00 0.00 0.00 40 1018.0
20260510164625 13 242 3.2 3.2 0.00 0.00 0.00 39 1017.9
20260510164122 13 231 4.8 9.7 0.00 0.00 0.00 36 1018.0
20260510163617 12 285 9.7 14.5 0.00 0.00 0.00 38 1017.9
20260510163114 13 281 3.2 4.8 0.00 0.00 0.00 39 1018.2
20260510162608 12 149 0.0 1.6 0.00 0.00 0.00 40 1018.1
20260510162105 13 323 9.7 12.9 0.00 0.00 0.00 38 1018.1
20260510161601 13 261 3.2 4.8 0.00 0.00 0.00 41 1017.9
20260510161058 13 259 4.8 4.8 0.00 0.00 0.00 41 1018.1
20260510160555 12 77 0.0 0.0 0.00 0.00 0.00 43 1018.0
20260510160054 12 23 6.4 8.0 0.00 0.00 0.00 42 1018.1
20260510155551 12 339 4.8 8.0 0.00 0.00 0.00 40 1017.8
20260510155048 12 328 4.8 4.8 0.00 0.00 0.00 41 1018.0
20260510154543 12 285 6.4 9.7 0.00 0.00 0.00 41 1017.8
20260510154039 11 260 4.8 8.0 0.00 0.00 0.00 42 1017.8
20260510153534 12 262 1.6 1.6 0.00 0.00 0.00 42 1017.8
20260510153031 12 293 8.0 12.9 0.00 0.00 0.00 42 1017.5
20260510152528 12 355 0.0 1.6 0.00 0.00 0.00 42 1017.6
20260510152024 12 294 3.2 3.2 0.00 0.00 0.00 43 1018.0
20260510151521 12 10 4.8 4.8 0.00 0.00 0.00 44 1017.5
20260510151019 11 307 0.0 0.0 0.00 0.00 0.00 45 1017.5
20260510150513 11 345 0.0 0.0 0.00 0.00 0.00 44 1017.5
20260510150010 11 205 3.2 4.8 0.00 0.00 0.00 47 1017.6
20260510145507 11 284 4.8 8.0 0.00 0.00 0.00 46 1017.6
20260510145003 11 338 9.7 11.3 0.00 0.00 0.00 45 1017.7
20260510144500 11 307 6.4 9.7 0.00 0.00 0.00 44 1017.6
20260510143955 11 49 0.0 3.2 0.00 0.00 0.00 47 1017.4
20260510143451 11 329 0.0 0.0 0.00 0.00 0.00 47 1017.6
20260510142947 10 13 0.0 0.0 0.00 0.00 0.00 48 1017.6
20260510142439 10 301 6.4 8.0 0.00 0.00 0.00 48 1017.4
20260510141935 10 321 4.8 4.8 0.00 0.00 0.00 49 1017.4
20260510141432 10 303 8.0 11.3 0.00 0.00 0.00 49 1017.4
20260510140929 10 44 1.6 3.2 0.00 0.00 0.00 47 1017.4
20260510140426 10 283 0.0 1.6 0.00 0.00 0.00 50 1017.4
20260510135925 10 225 3.2 4.8 0.00 0.00 0.00 48 1017.4
20260510135421 10 301 0.0 1.6 0.00 0.00 0.00 50 1017.2
20260510134918 10 330 1.6 1.6 0.00 0.00 0.00 48 1017.4
20260510134415 10 351 0.0 0.0 0.00 0.00 0.00 51 1017.5
20260510133911 10 268 4.8 4.8 0.00 0.00 0.00 49 1017.1
20260510133408 10 311 1.6 3.2 0.00 0.00 0.00 49 1017.2
20260510132903 10 285 0.0 0.0 0.00 0.00 0.00 52 1017.0
20260510132401 10 26 0.0 0.0 0.00 0.00 0.00 52 1016.8
20260510131858 9 315 0.0 0.0 0.00 0.00 0.00 51 1016.9
20260510131355 9 300 0.0 0.0 0.00 0.00 0.00 51 1016.8
20260510130852 9 326 3.2 8.0 0.00 0.00 0.00 51 1016.9
20260510130349 9 216 0.0 0.0 0.00 0.00 0.00 53 1016.8
20260510125846 8 281 0.0 0.0 0.00 0.00 0.00 53 1016.6
20260510125342 8 267 0.0 1.6 0.00 0.00 0.00 57 1016.8
20260510124839 8 228 0.0 0.0 0.00 0.00 0.00 56 1016.6
20260510124335 8 216 3.2 3.2 0.00 0.00 0.00 59 1016.6
20260510123831 7 283 0.0 0.0 0.00 0.00 0.00 64 1016.7
20260510123327 7 346 3.2 3.2 0.00 0.00 0.00 63 1016.7
20260510122823 7 337 1.6 1.6 0.00 0.00 0.00 65 1016.6
20260510122320 7 246 0.0 0.0 0.00 0.00 0.00 67 1016.6
20260510121816 7 225 1.6 1.6 0.00 0.00 0.00 69 1016.5
20260510121314 6 226 1.6 1.6 0.00 0.00 0.00 70 1016.3
20260510120811 6 285 1.6 3.2 0.00 0.00 0.00 72 1016.3
20260510120307 6 311 0.0 0.0 0.00 0.00 0.00 74 1016.1
20260510115803 5 288 1.6 3.2 0.00 0.00 0.00 74 1016.1
20260510115305 5 233 3.2 3.2 0.00 0.00 0.00 75 1016.2
20260510114756 5 290 3.2 3.2 0.00 0.00 0.00 76 1016.1
20260510114253 5 218 0.0 0.0 0.00 0.00 0.00 77 1016.2
20260510113748 4 281 1.6 3.2 0.00 0.00 0.00 77 1016.1
20260510113246 4 283 1.6 1.6 0.00 0.00 0.00 78 1016.0
20260510112742 3 253 0.0 0.0 0.00 0.00 0.00 81 1016.0
20260510112238 2 287 0.0 0.0 0.00 0.00 0.00 88 1015.8
20260510111734 2 293 0.0 0.0 0.00 0.00 0.00 91 1015.9
20260510111232 2 294 0.0 0.0 0.00 0.00 0.00 93 1015.7
20260510110731 1 294 0.0 0.0 0.00 0.00 0.00 95 1015.9
20260510110229 1 292 0.0 0.0 0.00 0.00 0.00 96 1015.8
20260510105728 1 280 0.0 0.0 0.00 0.00 0.00 96 1015.5
20260510105224 0 283 0.0 0.0 0.00 0.00 0.00 96 1015.6
20260510104720 0 283 0.0 0.0 0.00 0.00 0.00 96 1015.6
20260510104218 0 284 0.0 0.0 0.00 0.00 0.00 96 1015.3
20260510103714 0 284 0.0 0.0 0.00 0.00 0.00 95 1015.4
20260510103212 0 284 0.0 0.0 0.00 0.00 0.00 95 1015.1
20260510102711 0 284 0.0 0.0 0.00 0.00 0.00 95 1014.9
20260510102207 0 285 0.0 0.0 0.00 0.00 0.00 94 1015.0
20260510101705 0 285 0.0 0.0 0.00 0.00 0.00 94 1015.0
20260510101203 1 281 0.0 0.0 0.00 0.00 0.00 93 1014.8
20260510100658 1 280 0.0 0.0 0.00 0.00 0.00 93 1014.4
20260510100157 1 284 0.0 0.0 0.00 0.00 0.00 93 1014.7
20260510095652 1 284 0.0 0.0 0.00 0.00 0.00 93 1014.6
20260510095147 1 284 0.0 0.0 0.00 0.00 0.00 92 1014.5
20260510094646 1 280 0.0 0.0 0.00 0.00 0.00 91 1014.6
20260510094142 1 280 0.0 0.0 0.00 0.00 0.00 91 1014.7
20260510093638 1 284 0.0 0.0 0.00 0.00 0.00 91 1014.3
20260510093135 1 284 0.0 0.0 0.00 0.00 0.00 91 1014.4
20260510092632 1 318 0.0 0.0 0.00 0.00 0.00 90 1014.6
20260510092127 1 318 0.0 0.0 0.00 0.00 0.00 89 1014.5
20260510091623 2 334 0.0 0.0 0.00 0.00 0.00 88 1014.3
20260510091120 2 281 0.0 0.0 0.00 0.00 0.00 88 1014.4
20260510090617 2 280 0.0 0.0 0.00 0.00 0.00 88 1014.3
20260510090113 2 280 0.0 0.0 0.00 0.00 0.00 87 1014.2
20260510085608 2 281 0.0 0.0 0.00 0.00 0.00 86 1014.1
20260510085104 2 280 0.0 0.0 0.00 0.00 0.00 86 1013.7
20260510084600 2 280 0.0 0.0 0.00 0.00 0.00 85 1013.7
20260510084057 2 280 0.0 0.0 0.00 0.00 0.00 84 1013.7
20260510083553 2 280 0.0 0.0 0.00 0.00 0.00 83 1013.5
20260510083050 2 280 0.0 0.0 0.00 0.00 0.00 82 1013.4
20260510082547 3 280 0.0 0.0 0.00 0.00 0.00 81 1013.6
20260510082042 3 281 0.0 0.0 0.00 0.00 0.00 80 1013.4
20260510081537 3 269 0.0 0.0 0.00 0.00 0.00 79 1013.6
20260510081033 3 280 0.0 0.0 0.00 0.00 0.00 77 1013.3
20260510080532 3 302 0.0 0.0 0.00 0.00 0.00 76 1013.1
20260510080030 3 287 0.0 0.0 0.00 0.00 0.00 75 1012.7
20260510075527 4 263 0.0 0.0 0.00 0.00 0.00 75 1012.6
20260510075023 4 267 0.0 0.0 0.00 0.00 0.00 74 1012.7
20260510074521 5 280 0.0 0.0 0.00 0.00 0.00 72 1012.9
20260510074016 5 281 0.0 0.0 0.00 0.00 0.00 70 1012.6
20260510073513 5 293 0.0 0.0 0.00 0.00 0.00 69 1012.6
20260510073010 5 305 0.0 0.0 0.00 0.00 0.00 68 1012.5
20260510072506 5 299 0.0 0.0 0.00 0.00 0.00 67 1012.3
20260510072002 5 314 1.6 1.6 0.00 0.00 0.00 67 1012.4
20260510071458 5 283 0.0 0.0 0.00 0.00 0.00 67 1012.3
20260510070957 5 45 0.0 0.0 0.00 0.00 0.00 67 1012.3
20260510070453 6 330 0.0 0.0 0.00 0.00 0.00 67 1012.0
20260510065949 6 307 0.0 0.0 0.00 0.00 0.00 67 1012.3
20260510065447 6 282 1.6 1.6 0.00 0.00 0.00 66 1012.1
20260510064942 6 312 0.0 0.0 0.00 0.00 0.00 65 1012.2
20260510064440 6 29 1.6 3.2 0.00 0.00 0.00 65 1011.9
20260510063936 6 344 0.0 0.0 0.00 0.00 0.00 64 1012.0
20260510063432 6 5 3.2 4.8 0.00 0.00 0.00 65 1011.9
20260510062930 6 330 0.0 1.6 0.00 0.00 0.00 64 1011.5
20260510062425 6 43 1.6 3.2 0.00 0.00 0.00 64 1011.6
20260510061921 6 23 3.2 3.2 0.00 0.00 0.00 64 1011.6
20260510061418 6 301 0.0 0.0 0.00 0.00 0.00 65 1011.6
20260510060914 6 308 3.2 3.2 0.00 0.00 0.00 65 1011.8
20260510060410 6 313 1.6 1.6 0.00 0.00 0.00 66 1011.5
20260510055907 7 315 0.0 0.0 0.00 0.00 0.00 65 1011.1
20260510055403 7 5 1.6 1.6 0.00 0.00 0.00 64 1011.2
20260510054901 7 302 1.6 3.2 0.00 0.00 0.00 64 1011.3
20260510054356 7 32 1.6 1.6 0.00 0.00 0.00 64 1011.0
20260510053851 7 321 1.6 1.6 0.00 0.00 0.00 65 1011.2
20260510053347 7 319 0.0 0.0 0.00 0.00 0.00 65 1011.0
20260510052844 7 314 0.0 0.0 0.00 0.00 0.00 64 1010.7
20260510052339 8 314 0.0 0.0 0.00 0.00 0.00 64 1010.7
20260510051836 8 23 1.6 3.2 0.00 0.00 0.00 64 1010.9
20260510051332 8 49 1.6 3.2 0.00 0.00 0.00 64 1010.6
20260510050830 8 336 3.2 3.2 0.00 0.00 0.00 64 1010.7
20260510050326 8 49 1.6 3.2 0.00 0.00 0.00 64 1010.5
20260510045823 8 338 1.6 1.6 0.00 0.00 0.00 64 1010.2
20260510045320 8 357 0.0 1.6 0.00 0.00 0.00 64 1010.2
20260510044817 8 9 0.0 1.6 0.00 0.00 0.00 65 1010.2
20260510044314 8 13 4.8 4.8 0.00 0.00 0.00 67 1010.3
20260510043810 8 296 1.6 1.6 0.00 0.00 0.00 71 1010.2
20260510043306 8 311 0.0 0.0 0.00 0.00 0.00 72 1009.8
20260510042804 8 322 0.0 0.0 0.00 0.00 0.00 71 1009.7
20260510042259 8 311 0.0 0.0 0.00 0.00 0.00 72 1009.6
20260510041756 8 305 0.0 0.0 0.00 0.00 0.00 73 1009.6
20260510041253 7 311 0.0 0.0 0.00 0.00 0.00 75 1009.4
20260510040750 7 323 0.0 0.0 0.00 0.00 0.00 77 1009.4
20260510040242 8 303 0.0 0.0 0.00 0.00 0.00 76 1009.3
20260510035737 8 338 0.0 0.0 0.00 0.18 0.18 75 1009.3
20260510035233 8 338 0.0 0.0 0.00 0.18 0.18 73 1009.1
20260510034729 8 343 0.0 0.0 0.00 0.18 0.18 73 1009.0
20260510034228 8 343 0.0 0.0 0.00 0.18 0.18 70 1008.8
20260510033723 9 343 0.0 0.0 0.00 0.18 0.18 69 1008.8
20260510033221 10 348 0.0 0.0 0.00 0.18 0.18 68 1008.8
20260510032717 10 356 0.0 0.0 0.00 0.18 0.18 68 1008.6
20260510032213 10 342 0.0 0.0 0.00 0.18 0.18 69 1008.5
20260510031708 10 294 0.0 0.0 0.00 0.18 0.18 68 1008.4
20260510031205 10 345 0.0 0.0 0.00 0.18 0.18 67 1008.7
20260510030704 10 332 0.0 0.0 0.00 0.18 0.18 66 1008.2
20260510030202 10 336 0.0 0.0 0.00 0.18 0.18 65 1007.9
20260510025659 11 27 0.0 0.0 0.00 0.18 0.18 65 1008.1
20260510025156 11 31 0.0 0.0 0.00 0.18 0.18 62 1008.0
20260510024653 11 350 0.0 0.0 0.00 0.18 0.18 61 1008.0
20260510024150 12 342 0.0 0.0 0.00 0.18 0.18 60 1007.7
20260510023645 12 341 0.0 0.0 0.00 0.18 0.18 60 1007.8
20260510023143 12 347 0.0 1.6 0.00 0.18 0.18 58 1007.6
20260510022637 12 349 1.6 1.6 0.00 0.18 0.18 57 1007.8
20260510022132 13 26 1.6 3.2 0.00 0.18 0.18 56 1007.6
20260510021628 13 292 1.6 3.2 0.00 0.18 0.18 52 1007.4
20260510021126 13 71 1.6 3.2 0.00 0.18 0.18 52 1007.1
20260510020620 13 320 4.8 8.0 0.00 0.18 0.18 52 1007.1
20260510020115 13 291 3.2 3.2 0.00 0.18 0.18 51 1007.1
20260510015612 14 280 1.6 1.6 0.00 0.18 0.18 51 1006.6
20260510015109 14 341 8.0 9.7 0.00 0.18 0.18 50 1006.7
20260510014604 14 270 3.2 3.2 0.00 0.18 0.18 51 1006.4
20260510014102 14 319 3.2 4.8 0.00 0.18 0.18 51 1006.5
20260510013556 14 313 3.2 4.8 0.00 0.18 0.18 51 1006.2
20260510013052 14 328 8.0 11.3 0.00 0.18 0.18 51 1005.9
20260510012551 14 294 1.6 1.6 0.00 0.18 0.18 51 1006.0
20260510012048 14 294 1.6 1.6 0.00 0.18 0.18 51 1005.7
20260510011548 14 273 1.6 1.6 0.00 0.18 0.18 50 1005.7
20260510011044 15 327 8.0 12.9 0.00 0.18 0.18 50 1005.3
20260510010541 15 256 1.6 1.6 0.00 0.18 0.18 50 1005.5
20260510010038 15 303 4.8 8.0 0.00 0.18 0.18 49 1005.3
20260510005533 15 311 1.6 1.6 0.00 0.18 0.18 49 1005.2
20260510005031 15 267 3.2 8.0 0.00 0.18 0.18 48 1005.2
20260510004529 15 34 6.4 8.0 0.00 0.18 0.18 48 1004.9
20260510004026 15 328 8.0 11.3 0.00 0.18 0.18 47 1004.9
20260510003517 15 17 8.0 11.3 0.00 0.18 0.18 47 1004.7
20260510003013 16 297 11.3 16.1 0.00 0.18 0.18 45 1004.7
20260510002508 16 311 3.2 3.2 0.00 0.18 0.18 44 1004.5
20260510002005 16 330 6.4 9.7 0.00 0.18 0.18 43 1004.3
20260510001503 16 285 3.2 4.8 0.00 0.18 0.18 43 1004.1
20260510001001 16 299 1.6 3.2 0.00 0.18 0.18 42 1003.9
20260510000456 17 278 11.3 14.5 0.00 0.18 0.18 42 1003.7
20260509235953 17 254 3.2 4.8 0.00 0.18 0.18 43 1003.6
20260509235450 17 329 4.8 8.0 0.00 0.18 0.18 42 1003.5
20260509234946 17 211 6.4 9.7 0.00 0.18 0.18 42 1003.5
20260509234443 17 275 4.8 4.8 0.00 0.18 0.18 42 1003.5
20260509233941 17 268 6.4 8.0 0.00 0.18 0.18 42 1003.2
20260509233438 17 206 12.9 16.1 0.00 0.18 0.18 41 1003.2
20260509232934 17 251 1.6 4.8 0.00 0.18 0.18 41 1003.2
20260509232432 18 240 6.4 11.3 0.00 0.18 0.18 42 1002.9
20260509231927 18 270 3.2 8.0 0.00 0.18 0.18 41 1003.0
20260509231424 18 324 14.5 20.9 0.00 0.18 0.18 40 1002.8
20260509230923 18 258 11.3 16.1 0.00 0.18 0.18 40 1002.7
20260509230419 18 135 3.2 4.8 0.00 0.18 0.18 40 1002.8
20260509225915 18 289 11.3 17.7 0.00 0.18 0.18 39 1002.8
20260509225412 18 222 11.3 14.5 0.00 0.18 0.18 39 1002.7